TimeEDT,TemperatureF,Dew PointF,Humidity,Sea Level PressureIn,VisibilityMPH,Wind Direction,Wind SpeedMPH,Gust SpeedMPH,PrecipitationIn,Events,Conditions,WindDirDegrees,DateUTC
12:55 AM,53.1,51.1,93,29.75,0.8,East,8.1,-,N/A,,Mist,90,2013-05-29 04:55:00
1:12 AM,53.1,51.1,93,29.76,1.0,East,6.9,-,N/A,,Mist,100,2013-05-29 05:12:00
1:23 AM,53.1,51.1,93,29.76,0.8,ESE,4.6,-,N/A,,Mist,120,2013-05-29 05:23:00
1:55 AM,52.0,51.1,97,29.77,0.5,SE,3.5,-,N/A,Fog,Fog,140,2013-05-29 05:55:00
2:55 AM,52.0,51.1,97,29.76,0.5,SE,4.6,-,N/A,Fog,Fog,140,2013-05-29 06:55:00
3:11 AM,52.0,51.1,97,29.75,1.2,ESE,3.5,-,N/A,,Overcast,120,2013-05-29 07:11:00
3:34 AM,52.0,51.1,97,29.75,2.5,East,3.5,-,N/A,,Overcast,100,2013-05-29 07:34:00
3:45 AM,52.0,51.1,97,29.75,4.0,SE,3.5,-,N/A,,Overcast,140,2013-05-29 07:45:00
3:55 AM,52.0,51.1,97,29.75,5.0,ESE,3.5,-,N/A,,Overcast,120,2013-05-29 07:55:00
4:55 AM,52.0,51.1,97,29.76,3.0,Calm,Calm,-,N/A,,Overcast,0,2013-05-29 08:55:00
5:05 AM,52.0,51.1,97,29.76,6.0,Calm,Calm,-,N/A,,Overcast,0,2013-05-29 09:05:00
5:55 AM,53.1,51.1,93,29.78,6.0,Calm,Calm,-,N/A,,Overcast,0,2013-05-29 09:55:00
6:10 AM,53.1,50.0,89,29.78,4.0,WNW,3.5,-,N/A,,Overcast,290,2013-05-29 10:10:00
6:20 AM,53.1,51.1,93,29.78,2.5,West,3.5,-,N/A,,Overcast,270,2013-05-29 10:20:00
6:25 AM,52.0,51.1,97,29.78,1.5,West,3.5,-,N/A,,Overcast,280,2013-05-29 10:25:00
6:50 AM,51.8,50.0,94,29.79,2.5,West,4.6,-,N/A,,Overcast,270,2013-05-29 10:50:00
6:55 AM,52.0,50.0,93,29.79,2.5,West,3.5,-,N/A,,Overcast,280,2013-05-29 10:55:00
7:27 AM,53.1,51.1,93,29.79,4.0,West,3.5,-,N/A,,Overcast,270,2013-05-29 11:27:00
7:55 AM,53.1,51.1,93,29.81,5.0,West,5.8,-,N/A,,Overcast,280,2013-05-29 11:55:00
8:15 AM,54.0,51.1,90,29.80,10.0,West,5.8,-,N/A,,Overcast,260,2013-05-29 12:15:00
8:55 AM,54.0,51.1,90,29.81,10.0,West,4.6,-,N/A,,Overcast,260,2013-05-29 12:55:00
9:55 AM,55.0,52.0,89,29.83,10.0,WSW,5.8,-,N/A,,Overcast,240,2013-05-29 13:55:00
10:55 AM,57.0,51.1,81,29.83,10.0,WNW,9.2,-,N/A,,Overcast,290,2013-05-29 14:55:00
11:47 AM,59.0,52.0,78,29.85,10.0,WNW,8.1,-,N/A,,Overcast,290,2013-05-29 15:47:00
11:55 AM,60.1,53.1,78,29.85,10.0,WSW,6.9,-,N/A,,Overcast,250,2013-05-29 15:55:00
12:25 PM,60.1,52.0,75,29.85,10.0,WNW,5.8,-,N/A,,Overcast,290,2013-05-29 16:25:00
12:44 PM,62.1,53.1,72,29.86,10.0,West,9.2,-,N/A,,Overcast,270,2013-05-29 16:44:00
12:52 PM,62.6,53.6,72,29.86,10.0,West,10.4,-,N/A,,Overcast,260,2013-05-29 16:52:00
12:55 PM,62.1,53.1,72,29.86,10.0,West,9.2,-,N/A,,Overcast,260,2013-05-29 16:55:00
1:55 PM,63.0,54.0,72,29.87,10.0,NW,6.9,-,N/A,,Overcast,320,2013-05-29 17:55:00
2:37 PM,63.0,54.0,72,29.87,10.0,SSW,8.1,-,N/A,,Overcast,200,2013-05-29 18:37:00
2:55 PM,63.0,54.0,72,29.88,10.0,SW,6.9,-,N/A,,Overcast,220,2013-05-29 18:55:00
3:24 PM,64.0,55.0,73,29.89,10.0,WSW,6.9,-,N/A,,Overcast,240,2013-05-29 19:24:00
3:51 PM,64.4,55.4,73,29.90,10.0,West,6.9,-,N/A,,Overcast,270,2013-05-29 19:51:00
3:55 PM,64.0,55.0,73,29.90,10.0,West,5.8,-,N/A,,Overcast,270,2013-05-29 19:55:00
4:55 PM,64.9,55.0,70,29.89,10.0,West,4.6,-,N/A,,Overcast,270,2013-05-29 20:55:00
5:35 PM,66.0,55.0,68,29.89,10.0,WNW,3.5,-,N/A,,Overcast,300,2013-05-29 21:35:00
5:55 PM,66.0,55.0,68,29.89,10.0,Variable,3.5,-,N/A,,Overcast,0,2013-05-29 21:55:00
6:03 PM,66.0,55.0,68,29.90,10.0,WNW,5.8,-,N/A,,Overcast,300,2013-05-29 22:03:00
6:55 PM,64.9,55.0,70,29.90,10.0,SSW,11.5,-,N/A,,Overcast,210,2013-05-29 22:55:00
7:06 PM,64.0,55.0,73,29.90,10.0,SW,10.4,-,N/A,,Overcast,220,2013-05-29 23:06:00
7:55 PM,62.1,54.0,75,29.90,10.0,SW,12.7,-,N/A,,Overcast,220,2013-05-29 23:55:00
8:55 PM,60.1,54.0,80,29.90,10.0,SSW,8.1,-,N/A,,Clear,210,2013-05-30 00:55:00
9:55 PM,57.9,53.1,84,29.90,10.0,Calm,Calm,-,N/A,,Clear,0,2013-05-30 01:55:00
10:55 PM,54.0,51.1,90,29.94,10.0,Calm,Calm,-,N/A,,Partly Cloudy,0,2013-05-30 02:55:00
11:14 PM,55.0,51.1,86,29.94,10.0,Calm,Calm,-,N/A,,Mostly Cloudy,0,2013-05-30 03:14:00
11:55 PM,57.0,53.1,87,29.93,10.0,ESE,3.5,-,N/A,,Scattered Clouds,110,2013-05-30 03:55:00